Location: Bakhuizen
(52.8696°N, 5.4575°E)
Time: 21:20:01
(UTC+00:00)

Nimbus 7 Rocket - Pass Details

Date: 11 May 2021
Orbit: 923 x 964 km, 99.4° (Epoch: 24 June)

Event Time Altitude Azimuth Distance (km) Brightness Sun altitude
Rises 23:15:31 0° 17° (NNE) 3,583 8.7 -18.9°
Reaches altitude 10° 23:17:58 10° 20° (NNE) 2,638 7.8 -18.9°
Maximum altitude 23:23:51 69° 104° (ESE) 993 4.4 -19.0°
Enters shadow 23:26:36 33° 179° (S) 1,518 4.9 -19.0°
